Fort Meade, MD

3:31 PM EDT on July 26, 2017 (GMT -0400)
Tipton

Weather History for KFME - May, 2013

Change the Weather History Date:

Tuesday, May 21, 2013

  Actual Average (KBWI) Record (KBWI)
Temperature  
Mean Temperature 70 °F -  
Max Temperature 80 °F 74 °F 96 °F (1934)
Min Temperature 60 °F 55 °F 34 °F (2002)
Cooling Degree Days 5    
Growing Degree Days 20 (Base 50)    
Moisture  
Dew Point 64 °F    
Average Humidity 81    
Maximum Humidity 100    
Minimum Humidity 61    
Precipitation  
Precipitation 0.00 in - - ()
Sea Level Pressure  
Sea Level Pressure 29.97 in    
Wind  
Wind Speed 2 mph (SSW)    
Max Wind Speed 9 mph    
Max Gust Speed -    
Visibility 8 miles    
Events      
Averages and records for this station are not official NWS values.
T = Trace of Precipitation, MM = Missing Value Source: NWS Daily Summary

Daily Weather History Graph

Daily Weather History Graph

Search for Another Location

Airport or City:

Trip Planner

Search our weather history database for the weather conditions in past years. The results will help you decide how hot, cold, wet, or windy it might be!

Date:

Astronomy

May. 21, 2013 Rise Set
Actual Time 5:49 AM EDT 8:18 PM EDT
Civil Twilight 5:18 AM EDT 8:49 PM EDT
Nautical Twilight 4:40 AM EDT 9:27 PM EDT
Astronomical Twilight 3:58 AM EDT 10:10 PM EDT
Moon 4:31 PM EDT (5/21) 3:13 AM EDT (5/21)
Length of Visible Light 15h 31m
Length of Day
14h 29m
Waxing Gibbous, 84% of the Moon is Illuminated
May 21
Waxing Gibbous
May 25
Full
May 31
Last Quarter
Jun 8
New
Jun 16
First Quarter

Hourly Weather History & Observations

Time (EDT) Temp. Heat Index Dew Point Humidity Pressure Visibility Wind Dir Wind Speed Gust Speed Precip Events Conditions
12:15 AM 62.6 °F - 60.8 °F 94% 30.02 in 7.0 mi Calm Calm - N/A   Clear
12:33 AM 62.6 °F - 60.8 °F 94% 30.02 in 4.0 mi Calm Calm - N/A   Clear
12:54 AM 62.6 °F - 60.8 °F 94% 30.02 in 1.0 mi Calm Calm - N/A   Unknown
1:15 AM 62.6 °F - 60.8 °F 94% 30.01 in 4.0 mi Calm Calm - N/A   Clear
1:33 AM 62.6 °F - 60.8 °F 94% 30.01 in 4.0 mi Calm Calm - N/A   Clear
1:54 AM 62.6 °F - 60.8 °F 94% 30.01 in 5.0 mi Calm Calm - N/A   Clear
2:15 AM 62.6 °F - 60.8 °F 94% 30.00 in 5.0 mi Calm Calm - N/A   Clear
2:33 AM 60.8 °F - 59.0 °F 94% 30.00 in 5.0 mi Calm Calm - N/A   Clear
2:54 AM 60.8 °F - 59.0 °F 94% 29.99 in 5.0 mi Calm Calm - N/A   Clear
3:15 AM 60.8 °F - 59.0 °F 94% 29.99 in 2.0 mi Calm Calm - N/A   Clear
3:33 AM 60.8 °F - 59.0 °F 94% 29.99 in 4.0 mi Calm Calm - N/A   Clear
3:54 AM 60.8 °F - 59.0 °F 94% 29.98 in 5.0 mi Calm Calm - N/A   Scattered Clouds
4:15 AM 60.8 °F - 59.0 °F 94% 29.98 in 5.0 mi Calm Calm - N/A   Overcast
4:33 AM 60.8 °F - 60.8 °F 100% 29.98 in 5.0 mi Calm Calm - N/A   Overcast
4:54 AM 62.6 °F - 62.6 °F 100% 29.98 in 5.0 mi South 3.5 mph - N/A   Overcast
5:15 AM 62.6 °F - 62.6 °F 100% 29.99 in 5.0 mi SW 3.5 mph - N/A   Overcast
5:33 AM 64.4 °F - 62.6 °F 94% 30.00 in 5.0 mi SW 3.5 mph - N/A   Overcast
5:54 AM 64.4 °F - 62.6 °F 94% 30.01 in 5.0 mi SW 5.8 mph - N/A   Overcast
6:15 AM 64.4 °F - 62.6 °F 94% 30.02 in 3.0 mi SW 4.6 mph - N/A   Overcast
6:33 AM 66.2 °F - 64.4 °F 94% 30.02 in 3.0 mi Calm Calm - N/A   Overcast
6:54 AM 66.2 °F - 64.4 °F 94% 30.02 in 3.0 mi Calm Calm - N/A   Overcast
7:15 AM 68.0 °F - 64.4 °F 88% 30.02 in 3.0 mi Calm Calm - N/A   Overcast
7:33 AM 68.0 °F - 64.4 °F 88% 30.02 in 5.0 mi Calm Calm - N/A   Overcast
7:54 AM 68.0 °F - 64.4 °F 88% 30.02 in 5.0 mi Calm Calm - N/A   Overcast
8:15 AM 68.0 °F - 64.4 °F 88% 30.02 in 7.0 mi Calm Calm - N/A   Overcast
8:36 AM 69.8 °F - 64.4 °F 83% 30.02 in 10.0 mi Calm Calm - N/A   Overcast
8:54 AM 69.8 °F - 64.4 °F 83% 30.03 in 10.0 mi South 3.5 mph - N/A   Overcast
9:15 AM 69.8 °F - 64.4 °F 83% 30.02 in 10.0 mi Calm Calm - N/A   Overcast
9:36 AM 69.8 °F - 64.4 °F 83% 30.02 in 10.0 mi SSW 3.5 mph - N/A   Overcast
9:54 AM 71.6 °F - 64.4 °F 78% 30.02 in 10.0 mi SW 5.8 mph - N/A   Overcast
10:15 AM 71.6 °F - 64.4 °F 78% 30.01 in 10.0 mi SSW 4.6 mph - N/A   Overcast
10:36 AM 71.6 °F - 64.4 °F 78% 30.01 in 10.0 mi South 8.1 mph - N/A   Overcast
10:54 AM 73.4 °F - 64.4 °F 73% 30.01 in 10.0 mi SW 6.9 mph - N/A   Overcast
11:15 AM 73.4 °F - 64.4 °F 73% 30.01 in 10.0 mi South 4.6 mph - N/A   Overcast
11:36 AM 73.4 °F - 64.4 °F 73% 30.00 in 10.0 mi South 5.8 mph - N/A   Overcast
11:54 AM 75.2 °F - 64.4 °F 69% 30.00 in 10.0 mi South 4.6 mph - N/A   Mostly Cloudy
12:15 PM 77.0 °F - 64.4 °F 65% 30.01 in 10.0 mi SW 6.9 mph - N/A   Scattered Clouds
12:36 PM 77.0 °F - 66.2 °F 69% 30.01 in 10.0 mi SSW 5.8 mph - N/A   Scattered Clouds
12:54 PM 78.8 °F - 66.2 °F 65% 30.00 in 10.0 mi SW 6.9 mph - N/A   Mostly Cloudy
1:15 PM 77.0 °F - 64.4 °F 65% 29.99 in 10.0 mi SSE 8.1 mph - N/A   Mostly Cloudy
1:36 PM 78.8 °F - 64.4 °F 61% 29.99 in 10.0 mi SSW 9.2 mph - N/A   Scattered Clouds
1:54 PM 77.0 °F - 66.2 °F 69% 29.98 in 10.0 mi West 4.6 mph - N/A   Mostly Cloudy
2:15 PM 78.8 °F - 68.0 °F 69% 29.98 in 10.0 mi West 5.8 mph - N/A   Mostly Cloudy
2:36 PM 80.6 °F 82.7 °F 66.2 °F 61% 29.97 in 10.0 mi SW 8.1 mph - N/A   Scattered Clouds
2:54 PM 80.6 °F 82.7 °F 66.2 °F 61% 29.96 in 10.0 mi SSE 3.5 mph - N/A   Clear
3:15 PM 80.6 °F 82.7 °F 66.2 °F 61% 29.95 in 10.0 mi South 6.9 mph - N/A   Scattered Clouds
3:33 PM 80.6 °F 82.7 °F 66.2 °F 61% 29.95 in 10.0 mi SSW 9.2 mph - N/A   Scattered Clouds
3:54 PM 80.6 °F 82.7 °F 66.2 °F 61% 29.94 in 10.0 mi SW 6.9 mph - N/A   Clear
4:15 PM 80.6 °F 82.7 °F 66.2 °F 61% 29.94 in 10.0 mi SSW 5.8 mph - N/A   Clear
4:36 PM 80.6 °F 82.7 °F 66.2 °F 61% 29.93 in 10.0 mi South 6.9 mph - N/A   Clear
4:54 PM 80.6 °F 82.7 °F 66.2 °F 61% 29.93 in 10.0 mi South 4.6 mph - N/A   Clear
5:15 PM 80.6 °F 82.7 °F 66.2 °F 61% 29.92 in 10.0 mi South 4.6 mph - N/A   Clear
5:36 PM 80.6 °F 82.7 °F 66.2 °F 61% 29.92 in 10.0 mi SSE 9.2 mph - N/A   Clear
5:57 PM 80.6 °F 82.7 °F 66.2 °F 61% 29.92 in 10.0 mi SW 5.8 mph - N/A   Clear
6:15 PM 80.6 °F 82.7 °F 66.2 °F 61% 29.91 in 10.0 mi South 5.8 mph - N/A   Clear
6:36 PM 78.8 °F - 66.2 °F 65% 29.91 in 10.0 mi South 5.8 mph - N/A   Clear
6:57 PM 78.8 °F - 66.2 °F 65% 29.91 in 10.0 mi South 6.9 mph - N/A   Clear
7:15 PM 78.8 °F - 68.0 °F 69% 29.91 in 10.0 mi South 5.8 mph - N/A   Clear
7:36 PM 78.8 °F - 66.2 °F 65% 29.91 in 10.0 mi Calm Calm - N/A   Clear
7:57 PM 75.2 °F - 68.0 °F 78% 29.91 in 10.0 mi Calm Calm - N/A   Clear
8:15 PM 73.4 °F - 68.0 °F 83% 29.91 in 10.0 mi Calm Calm - N/A   Clear
8:36 PM 71.6 °F - 66.2 °F 83% 29.91 in 10.0 mi SSW 3.5 mph - N/A   Clear
8:57 PM 69.8 °F - 66.2 °F 88% 29.91 in 10.0 mi SSW 4.6 mph - N/A   Clear
9:15 PM 69.8 °F - 66.2 °F 88% 29.92 in 10.0 mi Calm Calm - N/A   Clear
9:36 PM 68.0 °F - 64.4 °F 88% 29.91 in 10.0 mi SSE 3.5 mph - N/A   Clear
9:57 PM 68.0 °F - 64.4 °F 88% 29.92 in 10.0 mi Calm Calm - N/A   Clear
10:15 PM 68.0 °F - 64.4 °F 88% 29.92 in 7.0 mi Calm Calm - N/A   Clear
10:36 PM 68.0 °F - 64.4 °F 88% 29.92 in 7.0 mi Calm Calm - N/A   Clear
10:57 PM 66.2 °F - 64.4 °F 94% 29.93 in 5.0 mi Calm Calm - N/A   Clear
11:15 PM 64.4 °F - 62.6 °F 94% 29.92 in 4.0 mi Calm Calm - N/A   Clear
11:36 PM 64.4 °F - 62.6 °F 94% 29.91 in 4.0 mi Calm Calm - N/A   Clear
11:57 PM 64.4 °F - 62.6 °F 94% 29.92 in 5.0 mi Calm Calm - N/A   Clear